"Pseudo-MPEC" for ZTF0383

Created 2019 May 21 8:07:25 UT using Find_Orb

Click here for an explanation of pseudo-MPECs

 
 Astrometry: 
     ZTF0383  C2019 05 13.39708717 20 40.18 +20 43 32.4    ~5IMq 19.66RUNEOCPI41
     ZTF0383  C2019 05 13.39743317 20 40.67 +20 43 44.1    ~5IMq 19.66RUNEOCPI41
     ZTF0383  C2019 05 14.32066017 55 15.04 +31 51 57.8    ~5EJb 18.49RUNEOCPI41
     ZTF0383  C2019 05 14.32100717 55 15.91 +31 52 15.4    ~5EJb 18.49RUNEOCPI41
     ZTF0383  C2019 05 14.36098417 57 16.34 +32 27 31.0    ~5EH7 18.74RUNEOCPI41
     ZTF0383  C2019 05 14.36133117 57 17.37 +32 27 51.0    ~5EH7 18.74RUNEOCPI41
     ZTF0383  C2019 05 14.44343818 01 35.82 +33 41 35.2    ~5EH7 19.50gUNEOCPI41
     ZTF0383  C2019 05 14.44378518 01 36.84 +33 41 53.2    ~5EH7 19.50gUNEOCPI41
     ZTF0383 KC2019 05 14.93078618 35 28.73 +41 33 02.8    ~5EN7 19.2 GVNEOCPJ95
     ZTF0383 KC2019 05 14.93567018 35 53.34 +41 38 05.4    ~5EN7 19.2 GVNEOCPJ95
     ZTF0383 KC2019 05 14.94001918 36 15.34 +41 42 35.6    ~5EN7 19.0 GVNEOCPJ95
     ZTF0383 KC2019 05 14.94446118 36 37.92 +41 47 12.5    ~5EN7 19.0 GVNEOCPJ95
     ZTF0383 KC2019 05 14.98810218 40 23.40 +42 32 32.8    ~5F37 19.7 GVNEOCPZ80
     ZTF0383 KC2019 05 14.99021 18 40 36.52 +42 35 16.1    ~5F17 19.4 VqNEOCPI93
     ZTF0383 KC2019 05 14.99573118 41 03.69 +42 40 29.3    ~5F37 19.2 GVNEOCPZ80
     ZTF0383 KC2019 05 15.00199118 41 36.87 +42 47 00.3    ~5F37 19.1 GVNEOCPZ80
     ZTF0383 KC2019 05 15.00348 18 41 46.66 +42 49 04.7    ~5F17 18.9 VqNEOCPI93
     ZTF0383 KC2019 05 15.01210 18 42 32.65 +42 58 04.2    ~5F17 18.6 VqNEOCPI93
     ZTF0383 KC2019 05 15.31713519 14 21.64 +48 12 30.7    ~5F8b 20.8 GVNEOCPH01
     ZTF0383 KC2019 05 15.32475419 15 15.33 +48 20 18.5    ~5F8b 21.1 GVNEOCPH01
     ZTF0383  C2019 05 15.33751119 16 45.98 +48 33 19.7    ~5F8b 19.8 GVNEOCPH01
     ZTF0383  C2019 05 15.34107819 17 11.48 +48 36 57.5    ~5F8b 19.5 GVNEOCPH01

Station data:
(H01) Magdalena Ridge Observatory, Socorro  (N33.984833 W107.189333)  US/New
   Mexico.  Observers W. H. Ryan, E. V. Ryan. Measurer W. H. Ryan. 2.4-m
   f/8.9 reflector + CCD.
(I41) Palomar Mountain--ZTF  (N33.357340 W116.859780)  US/California. 1.2-m
   f/2.44 Oschin Schmidt + CCD.
(I93) St Pardon de Conques  (N44.558710 W0.203000)  France.  Observer F.
   Losse. 0.40-m f/3.7 reflector + CCD.
(J95) Great Shefford  (N51.474969 W1.447003)  UK.  Observer P. Birtwhistle.
   0.40-m f/6.0 Schmidt-Cassegrain + CCD.
(Z80) Northolt Branch Observatory  (N51.554661 W0.371920)  UK.  Observer G.
   Wells. Measurer D. Bamberger. 0.25-m f/8 Ritchey-Chrétien + CCD.

Orbital elements:  ZTF0383
   Perihelion 2019 Jul 4.547816 +/- 0.0429 TT = 13:08:51 (JD 2458669.047816)
Epoch 2019 May 15.0 TT = JDT 2458618.5   Earth MOID: 0.0001   Ve: 0.0027
M 336.35044087 +/- 0.10             Ma: 0.0186                AutoNEOCP
n   0.46786510 +/- 0.00167          Peri.  260.85962 +/- 0.010
a   1.64332051 +/- 0.00391          Node    74.87875 +/- 0.008
e   0.6823462 +/- 0.001             Incl.    4.14115 +/- 0.0052
P   2.11/769.44d           H 24.7   G  0.15   U  8.4  
q 0.52200698 +/- 0.000404    Q 2.76463404 +/- 0.00824
From 22 observations 2019 May 13-15 (46.7 hr); mean residual 0".57
Residuals in arcseconds: 
190513 I41  .21-  .38+    190514 J95  .10+  .49+    190515 I93  .15-  .08-    
190513 I41  .84-  .15-    190514 J95  .10-  .35-    190515 I93  .00   .46+    
190514 I41  2.2+  1.3+    190514 J95  .18-  .48-    190515 H01  .34+  .32+    
190514 I41  .14+  .62+    190514 J95  .11+  .18+    190515 H01  .24+  .17+    
190514 I41  .27+  1.2-    190514 Z80  .55-  .55-    190515 H01  .37+  .28+    
190514 I41  .11-  .36+    190514 I93  .19+  .78+    190515 H01  .30+  .25+    
190514 I41  1.0+  .05+    190514 Z80  .14-  .14-    
190514 I41  .31-  .85-    190515 Z80  .50-  .09+    

Ephemerides (geocentric):
Date (UTC) HH   RA              Dec         delta   r     elong  mag " sig PA
---- -- -- --  -------------   -----------  ------ ------ -----  --- ---- ---
2019 05 21 08  03 05 46.527   +31 05 51.36  .07522 .93950  14.9 31?? .697 163
2019 05 21 09  03 06 10.380   +30 58 55.16  .07573 .93899  14.7 31?? .696 163
2019 05 21 10  03 06 33.867   +30 52 04.12  .07623 .93847  14.6 31?? .694 163
2019 05 21 11  03 06 56.996   +30 45 18.14  .07673 .93795  14.5 31?? .693 163
2019 05 21 12  03 07 19.775   +30 38 37.16  .07724 .93743  14.4 31?? .691 163
2019 05 21 13  03 07 42.213   +30 32 01.07  .07774 .93691  14.3 31?? .690 163
2019 05 21 14  03 08 04.316   +30 25 29.80  .07825 .93639  14.2 32?? .688 164
2019 05 21 15  03 08 26.092   +30 19 03.26  .07875 .93587  14.0 32?? .687 164
2019 05 21 16  03 08 47.549   +30 12 41.38  .07926 .93535  13.9 32?? .685 164
2019 05 21 17  03 09 08.693   +30 06 24.08  .07977 .93483  13.8 32?? .684 164
2019 05 21 18  03 09 29.530   +30 00 11.27  .08027 .93431  13.7 32?? .683 164
2019 05 21 19  03 09 50.069   +29 54 02.90  .08078 .93379  13.6 32?? .681 164
2019 05 21 20  03 10 10.314   +29 47 58.87  .08129 .93327  13.5 32?? .680 164
2019 05 21 21  03 10 30.273   +29 41 59.13  .08180 .93275  13.4 32?? .679 164
2019 05 21 22  03 10 49.951   +29 36 03.59  .08231 .93223  13.3 32?? .678 164
2019 05 21 23  03 11 09.354   +29 30 12.19  .08282 .93171  13.2 32?? .676 164
2019 05 22 00  03 11 28.488   +29 24 24.87  .08333 .93119  13.1 32?? .675 164
2019 05 22 01  03 11 47.358   +29 18 41.55  .08384 .93067  13.0 32?? .674 164
2019 05 22 02  03 12 05.971   +29 13 02.18  .08435 .93015  12.9 32?? .673 164
2019 05 22 03  03 12 24.330   +29 07 26.68  .08486 .92963  12.8 32?? .672 164
2019 05 22 04  03 12 42.442   +29 01 54.99  .08537 .92911  12.8 33?? .670 164
2019 05 22 05  03 13 00.310   +28 56 27.06  .08588 .92859  12.7 33?? .669 164
2019 05 22 06  03 13 17.941   +28 51 02.83  .08639 .92807  12.6 33?? .668 164
2019 05 22 07  03 13 35.339   +28 45 42.22  .08691 .92755  12.5 33?? .667 164
2019 05 22 08  03 13 52.508   +28 40 25.20  .08742 .92703  12.4 33?? .666 164
2019 05 22 09  03 14 09.453   +28 35 11.70  .08793 .92651  12.3 33?? .665 164
2019 05 22 10  03 14 26.179   +28 30 01.66  .08845 .92599  12.3 33?? .664 164
2019 05 22 11  03 14 42.689   +28 24 55.03  .08896 .92547  12.2 33?? .663 164
2019 05 22 12  03 14 58.988   +28 19 51.76  .08948 .92495  12.1 33?? .662 164
2019 05 22 13  03 15 15.079   +28 14 51.80  .08999 .92443  12.0 33?? .661 164
2019 05 22 14  03 15 30.968   +28 09 55.09  .09051 .92391  11.9 33?? .660 164
2019 05 22 15  03 15 46.657   +28 05 01.58  .09102 .92339  11.9 33?? .659 164
2019 05 22 16  03 16 02.150   +28 00 11.23  .09154 .92287  11.8 33?? .658 164
2019 05 22 17  03 16 17.452   +27 55 23.99  .09206 .92235  11.7 33?? .658 164
2019 05 22 18  03 16 32.565   +27 50 39.81  .09257 .92183  11.7 33?? .657 164
2019 05 22 19  03 16 47.493   +27 45 58.64  .09309 .92130  11.6 33?? .656 164
2019 05 22 20  03 17 02.240   +27 41 20.43  .09361 .92078  11.5 34?? .655 164
2019 05 22 21  03 17 16.809   +27 36 45.16  .09413 .92026  11.5 34?? .654 164
2019 05 22 22  03 17 31.203   +27 32 12.76  .09464 .91974  11.4 34?? .653 164
2019 05 22 23  03 17 45.425   +27 27 43.19  .09516 .91922  11.3 34?? .653 164
2019 05 23 00  03 17 59.479   +27 23 16.42  .09568 .91870  11.3 34?? .652 164
2019 05 23 01  03 18 13.367   +27 18 52.41  .09620 .91818  11.2 34?? .651 164
2019 05 23 02  03 18 27.092   +27 14 31.10  .09672 .91766  11.2 34?? .650 164
2019 05 23 03  03 18 40.658   +27 10 12.47  .09724 .91714  11.1 34?? .650 164
2019 05 23 04  03 18 54.066   +27 05 56.47  .09776 .91662  11.0 34?? .649 164
2019 05 23 05  03 19 07.321   +27 01 43.07  .09828 .91610  11.0 34?? .648 164
2019 05 23 06  03 19 20.424   +26 57 32.22  .09880 .91558  10.9 34?? .648 164
2019 05 23 07  03 19 33.378   +26 53 23.90  .09933 .91506  10.9 34?? .647 164